Location: Brunsen
(51.8651°N, 9.8610°E)
Time: 17:22:06
(UTC+00:00)

SL-08 R/B - Pass Details

Date: 23 May 2024
Orbit: 945 x 993 km, 83.0° (Epoch: 23 June)

Event Time Altitude Azimuth Distance (km) Brightness Sun altitude
Exits shadow 00:44:06 21° 192° (SSW) 2,003 5.5 -15.1°
Maximum altitude 00:48:23 85° 279° (W) 974 4.5 -14.8°
Drops below altitude 10° 00:54:35 10° 9° (N) 2,696 8.1 -14.4°
Sets 00:57:05 0° 11° (N) 3,640 9.2 -14.3°
